Weather reports worldwide

Advertisment
Muret-Lherm, France (7628): temperature & dewpoint: 27.06.2020 19:00:00 - 03.07.2020 19:00:00 (CEST)Muret-Lherm, France (7628): wind speed & gusts: 27.06.2020 19:00:00 - 03.07.2020 19:00:00 (CEST)Muret-Lherm, France (7628): wind direction: 27.06.2020 19:00:00 - 03.07.2020 19:00:00 (CEST)Muret-Lherm, France (7628): reduced air pressure: 27.06.2020 19:00:00 - 03.07.2020 19:00:00 (CEST)Muret-Lherm, France (7628): visibility: 27.06.2020 19:00:00 - 03.07.2020 19:00:00 (CEST)Muret-Lherm, France (7628): precipitation: 27.06.2020 19:00:00 - 03.07.2020 19:00:00 (CEST)
Date & Time tt [°C] td [°C] ff [km/h] ff [kn] fx [km/h] fx [kn] dd ppp [hPa] vv [km] rr [mm]
03.07.2020 19:00:00 - - - - - - - - - -
03.07.2020 18:00:00 21,9 10,4 16 9 39 21 NW 1022,1 20 0,0
03.07.2020 17:00:00 22,8 9,2 21 11 39 21 WNW 1022,0 20 0,0
03.07.2020 16:00:00 22,6 9,7 19 10 36 19 WNW 1022,3 20 0,0
03.07.2020 15:00:00 21,7 10,5 16 9 29 16 NW 1022,7 20 0,0
03.07.2020 14:00:00 21,7 10,8 16 9 40 22 WNW 1023,0 20 0,0
03.07.2020 13:00:00 20,0 9,5 15 8 27 15 WNW 1023,6 20 0,0
03.07.2020 12:00:00 19,2 9,9 14 7 24 13 NW 1023,8 20 0,0
03.07.2020 11:00:00 18,0 9,9 11 6 22 12 NW 1023,8 20 0,0
03.07.2020 10:00:00 18,6 11,7 10 5 23 12 NNW 1023,4 20 0,0
03.07.2020 09:00:00 17,0 11,5 12 6 22 12 NW 1023,5 20 0,0
03.07.2020 08:00:00 16,1 11,7 11 6 17 9 NW 1023,1 20 0,0
03.07.2020 07:00:00 15,3 12,1 6 3 12 6 WNW 1023,1 20 0,0
03.07.2020 06:00:00 15,5 12,1 9 5 17 9 WNW 1022,9 20 0,0
03.07.2020 05:00:00 16,0 13,3 10 5 19 11 WNW 1022,6 20 0,0
03.07.2020 04:00:00 16,2 13,7 13 7 21 12 W 1022,5 20 0,0
03.07.2020 03:00:00 16,5 13,6 15 8 24 13 W 1022,4 20 0,0
03.07.2020 02:00:00 16,7 13,8 14 7 24 13 W 1022,3 20 0,0
03.07.2020 01:00:00 17,0 13,7 16 8 23 12 W 1022,1 20 0,0
03.07.2020 00:00:00 17,0 13,9 11 6 23 12 W 1022,0 20 0,0
02.07.2020 23:00:00 17,4 13,9 14 8 23 12 W 1021,6 20 0,0
02.07.2020 22:00:00 18,0 13,7 13 7 26 14 W 1020,5 20 0,0
02.07.2020 21:00:00 19,1 13,5 17 9 25 13 WNW 1020,2 20 0,0
02.07.2020 20:00:00 19,7 13,4 15 8 25 14 WNW 1019,6 20 0,0
02.07.2020 19:00:00 20,5 13,9 13 7 25 14 WNW 1019,1 20 0,0
02.07.2020 18:00:00 20,3 13,7 15 8 24 13 NW 1018,9 20 0,0
02.07.2020 17:00:00 20,1 14,2 9 5 21 11 NNW 1018,9 20 -
02.07.2020 16:00:00 20,1 14,2 15 8 26 14 NW 1018,6 20 0,0
02.07.2020 15:00:00 20,6 14,5 15 8 23 13 NW 1018,2 20 0,0
02.07.2020 14:00:00 19,6 14,8 11 6 24 13 WNW 1018,7 20 0,0
02.07.2020 13:00:00 18,7 14,8 15 8 23 12 W 1018,7 20 0,0
02.07.2020 12:00:00 18,4 15,1 15 8 24 13 WNW 1018,2 20 0,0
02.07.2020 11:00:00 19,1 14,4 13 7 21 11 NNW 1017,8 20 0,0
02.07.2020 10:00:00 18,7 14,2 13 7 20 11 NNW 1017,6 20 0,0
02.07.2020 09:00:00 18,6 14,1 10 5 18 10 NNW 1017,2 20 0,0
02.07.2020 08:00:00 18,5 14,4 10 5 19 10 N 1016,8 20 0,0
02.07.2020 07:00:00 18,1 15,9 10 5 23 13 N 1016,6 20 0,0
02.07.2020 06:00:00 19,1 16,7 14 8 23 12 NNW 1016,2 20 0,0
02.07.2020 05:00:00 19,4 17,2 7 4 15 8 NW 1016,0 20 0,0
02.07.2020 04:00:00 19,7 17,5 6 3 13 7 NW 1016,1 20 0,0
02.07.2020 03:00:00 20,1 17,5 8 4 16 9 NW 1016,3 20 0,0
02.07.2020 02:00:00 20,2 17,4 7 4 18 10 WNW 1016,5 19 0,0
02.07.2020 01:00:00 20,7 17,5 5 3 11 6 NW 1016,5 19 0,0
02.07.2020 00:00:00 21,1 17,3 6 3 13 7 NNW 1016,4 19 0,0
01.07.2020 23:00:00 21,3 17,3 8 4 26 14 WNW 1016,0 20 0,0
01.07.2020 22:00:00 21,8 17,4 14 7 29 15 NW 1015,5 20 0,0
01.07.2020 21:00:00 22,7 17,6 13 7 26 14 NW 1014,9 20 0,0
01.07.2020 20:00:00 24,2 17,9 13 7 28 15 NNW 1014,2 20 0,0
01.07.2020 19:00:00 24,7 17,4 16 9 31 17 NW 1014,0 19 0,0
01.07.2020 18:00:00 25,9 18,3 16 9 25 13 NW 1013,3 19 0,0
01.07.2020 17:00:00 24,3 18,9 14 7 21 12 W 1013,5 17 1,2
01.07.2020 16:00:00 25,8 17,2 9 5 29 16 NW 1013,7 20 0,0
01.07.2020 15:00:00 25,2 18,4 19 11 35 19 NNW 1013,4 20 0,0
01.07.2020 14:00:00 25,1 17,8 18 10 29 16 WNW 1012,9 20 0,0
01.07.2020 13:00:00 24,6 17,6 15 8 23 12 WNW 1012,5 20 0,0
01.07.2020 12:00:00 23,6 17,8 4 2 22 12 NNE 1012,2 20 0,0
01.07.2020 11:00:00 22,3 19,7 8 4 16 9 W 1012,8 20 1,4
01.07.2020 10:00:00 21,9 15,5 10 6 16 9 WNW 1012,2 20 0,0
01.07.2020 09:00:00 20,9 16,5 6 4 9 5 W 1012,0 20 0,0
01.07.2020 08:00:00 18,8 16,6 4 2 9 5 SE 1011,6 20 0,0
01.07.2020 07:00:00 17,4 15,9 0 0 8 4 N 1011,2 20 0,0
01.07.2020 06:00:00 16,9 15,2 6 3 11 6 WNW 1011,0 20 0,0
01.07.2020 05:00:00 17,0 15,2 2 1 9 5 N 1010,8 20 0,0
01.07.2020 04:00:00 17,8 15,6 3 1 12 6 SW 1011,1 0,8 0,0
01.07.2020 03:00:00 18,9 15,9 11 6 15 8 NNE 1011,3 50 0,0
01.07.2020 02:00:00 19,5 16,7 14 8 23 12 SSW 1012,8 20 0,0
01.07.2020 01:00:00 19,7 16,7 5 3 17 9 N 1013,0 0,2 0,6
01.07.2020 00:00:00 20,7 15,7 10 5 12 7 W 1013,6 20 0,0
30.06.2020 23:00:00 21,4 15,5 5 3 13 7 N 1012,6 0,5 0,0
30.06.2020 22:00:00 23,4 15,4 2 1 12 6 N 1012,3 3,2 0,0
30.06.2020 21:00:00 26,3 15,4 5 3 10 6 N 1011,8 0,4 0,0
30.06.2020 20:00:00 27,5 14,2 8 4 14 7 NW 1011,9 1,2 0,0
30.06.2020 19:00:00 28,8 13,9 4 2 8 5 N 1012,2 3,2 0,0
30.06.2020 18:00:00 28,2 13,7 5 3 16 9 NE 1012,7 20 0,0
30.06.2020 17:00:00 27,9 14,2 5 3 15 8 NE 1013,0 20 0,0
30.06.2020 16:00:00 27,2 13,5 6 3 15 8 NNW 1013,7 20 0,0
30.06.2020 15:00:00 26,5 12,9 6 3 12 6 E 1014,5 20 0,0
30.06.2020 14:00:00 25,1 12,3 4 2 11 6 E 1015,2 20 0,0
30.06.2020 13:00:00 24,2 14,0 2 1 15 8 NNW 1015,7 20 0,0
30.06.2020 12:00:00 22,6 12,8 5 3 16 9 SW 1016,2 20 0,0
30.06.2020 11:00:00 22,2 13,3 4 2 11 6 NE 1016,6 20 0,0
30.06.2020 10:00:00 20,7 11,9 3 2 9 5 NW 1017,2 20 0,0
30.06.2020 09:00:00 18,9 11,9 0 0 8 4 N 1017,5 20 0,0
30.06.2020 08:00:00 17,2 11,7 4 2 9 5 NNW 1017,7 20 0,0
30.06.2020 07:00:00 15,5 11,5 5 3 8 5 W 1018,0 20 0,0
30.06.2020 06:00:00 15,1 11,3 4 2 9 5 WNW 1018,1 20 0,0
30.06.2020 05:00:00 16,0 11,2 5 3 16 9 WNW 1018,2 20 0,0
30.06.2020 04:00:00 17,0 11,3 6 3 11 6 NNW 1018,3 20 0,0
30.06.2020 03:00:00 17,5 11,7 7 4 17 9 NW 1018,5 20 0,0
30.06.2020 02:00:00 18,4 15,1 7 4 15 8 NW 1018,6 20 0,0
30.06.2020 01:00:00 19,2 15,1 5 3 13 7 WSW 1018,7 20 0,0
30.06.2020 00:00:00 19,2 15,3 8 4 13 7 WSW 1018,7 20 0,0
29.06.2020 23:00:00 19,5 15,2 9 5 14 7 WSW 1018,6 20 0,0
29.06.2020 22:00:00 20,0 15,0 10 5 16 9 WSW 1018,3 20 0,0
29.06.2020 21:00:00 20,8 14,9 10 5 20 11 W 1018,4 20 0,0
29.06.2020 20:00:00 21,3 14,7 12 7 19 11 W 1018,4 20 0,0
29.06.2020 19:00:00 21,8 14,7 14 7 23 13 WNW 1018,6 20 0,0
29.06.2020 18:00:00 22,1 15,2 14 8 30 16 W 1018,9 20 0,0
29.06.2020 17:00:00 22,7 15,5 15 8 26 14 NW 1019,1 20 0,0
29.06.2020 16:00:00 21,6 15,0 13 7 22 12 WNW 1019,5 20 0,0
29.06.2020 15:00:00 21,5 15,1 13 7 23 13 WNW 1019,7 20 0,0
29.06.2020 14:00:00 21,5 14,9 14 7 23 13 WNW 1020,0 20 0,0
29.06.2020 13:00:00 21,2 14,8 13 7 24 13 NW 1020,4 20 0,0
29.06.2020 12:00:00 20,0 14,6 14 8 26 14 NW 1020,3 20 0,0
29.06.2020 11:00:00 19,3 16,9 9 5 19 10 WNW 1020,2 10 0,0
29.06.2020 10:00:00 19,7 16,7 9 5 19 10 W 1020,0 20 0,0
29.06.2020 09:00:00 19,4 16,6 10 5 21 11 W 1020,1 20 0,0
29.06.2020 08:00:00 19,2 16,4 9 5 14 8 W 1019,9 20 0,0
29.06.2020 07:00:00 18,7 16,3 9 5 14 7 WSW 1019,7 20 0,0
29.06.2020 06:00:00 18,5 15,9 6 4 13 7 WSW 1019,4 20 0,0
29.06.2020 05:00:00 18,9 16,5 8 4 21 11 W 1019,3 20 0,0
29.06.2020 04:00:00 18,3 17,0 8 4 11 6 W 1019,1 19 0,0
29.06.2020 03:00:00 18,2 16,4 3 1 8 4 WSW 1019,0 20 0,0
29.06.2020 02:00:00 18,9 17,0 6 3 9 5 SW 1019,3 20 0,0
29.06.2020 01:00:00 19,3 16,7 7 4 9 5 SW 1019,6 20 0,0
29.06.2020 00:00:00 20,1 16,9 0 0 10 6 N 1019,6 20 0,0
28.06.2020 23:00:00 21,3 16,9 9 5 15 8 NW 1019,4 20 0,0
28.06.2020 22:00:00 22,1 16,8 10 5 26 14 NW 1018,9 20 0,0
28.06.2020 21:00:00 23,5 16,8 13 7 24 13 NW 1018,5 20 0,0
28.06.2020 20:00:00 24,3 17,1 11 6 27 14 WNW 1018,1 20 0,0
28.06.2020 19:00:00 25,3 16,7 15 8 24 13 W 1017,7 20 0,0
28.06.2020 18:00:00 26,7 18,0 14 8 25 13 WNW 1017,5 20 0,0
28.06.2020 17:00:00 26,6 17,1 13 7 21 11 WNW 1017,4 20 0,0
28.06.2020 16:00:00 26,3 17,6 8 4 21 11 NNW 1017,4 20 0,0
28.06.2020 15:00:00 26,5 16,7 8 4 18 10 NW 1017,5 20 0,0
28.06.2020 14:00:00 26,0 17,9 5 3 28 15 NW 1018,0 20 0,0
28.06.2020 13:00:00 25,7 16,5 7 4 17 9 N 1018,4 20 0,0
28.06.2020 12:00:00 24,1 16,9 8 4 30 16 N 1018,8 20 0,0
28.06.2020 11:00:00 23,1 17,1 8 4 18 10 NNW 1019,1 20 0,0
28.06.2020 10:00:00 21,9 16,8 11 6 23 12 NNW 1019,3 20 0,0
28.06.2020 09:00:00 21,0 17,0 13 7 22 12 NW 1019,1 20 0,0
28.06.2020 08:00:00 20,6 17,8 9 5 15 8 NW 1018,6 20 0,0
28.06.2020 07:00:00 19,9 17,5 8 4 11 6 NW 1018,5 20 0,0
28.06.2020 06:00:00 19,5 17,3 8 4 10 6 NW 1018,1 20 0,0
28.06.2020 05:00:00 19,5 17,3 5 3 9 5 WNW 1018,0 20 -
28.06.2020 04:00:00 19,7 17,5 5 3 9 5 NW 1017,5 20 0,0
28.06.2020 03:00:00 20,0 17,8 6 3 9 5 NW 1017,5 20 0,0
28.06.2020 02:00:00 20,4 18,3 6 3 10 5 N 1017,5 20 0,0
28.06.2020 01:00:00 20,4 18,7 5 3 5 3 SW 1017,5 14 0,0
28.06.2020 00:00:00 20,6 18,2 5 3 7 4 S 1017,3 20 0,0
27.06.2020 23:00:00 21,7 18,9 4 2 8 4 NW 1017,0 20 0,0
27.06.2020 22:00:00 23,5 19,0 5 3 8 4 WSW 1016,1 20 0,0
27.06.2020 21:00:00 25,6 18,5 4 2 8 4 WSW 1015,5 20 0,0
27.06.2020 20:00:00 27,7 17,5 4 2 13 7 WSW 1015,2 20 0,0
27.06.2020 19:00:00 28,0 17,2 6 3 15 8 W 1015,3 20 0,0

tt = temperature
td = dewpoint
ff = wind speed
fx = gusts
dd = wind direction
ppp = reduced air pressure
vv = visibility
rr = precipitation

Next stations